Regional Weather Roundup
Issued by NWS

Home | Current Version | Previous Version | Graphics & Text | Print | Product List | Glossary On
Versions: 1 2 3 4 5 6 7 8 9 10 11 12 13 14 15 16 17 18 19 20 21 22 23 24 25 26 27
000
ASUS45 KTFX 211210
RWRMT
MONTANA REGIONAL WEATHER ROUNDUP
NATIONAL WEATHER SERVICE GREAT FALLS MT
600 AM MDT SAT OCT 21 2017

NOTE: "FAIR" INDICATES FEW OR NO CLOUDS BELOW 12000 FEET WITH NO
SIGNIFICANT WEATHER AND/OR OBSTRUCTIONS TO VISIBILITY.

MTZ001>007-043-211300-
WEST OF THE DIVIDE

CITY           SKY/WX    TMP DP  RH WIND       PRES   REMARKS
KALISPELL      CLOUDY    40  34  79 S7        29.90R
MISSOULA       CLOUDY    37  34  89 SE7       29.97R WCI  32
BUTTE          MOCLDY    34  22  61 W8        29.93R WCI  27
MULLAN PASS    CLOUDY    26  23  88 VRB7      29.91R WCI  18
ANACONDA         N/A     32  21  64 SE3       29.94R
DEER LODGE       N/A     36  27  69 N6        29.94R WCI  31
EUREKA           N/A     41  36  81 MISG      29.87R
LIBBY            N/A     37  37 100 CALM      29.91R
$$

MTZ008-052>055-211300-
SOUTHWEST MONTANA

CITY           SKY/WX    TMP DP  RH WIND       PRES   REMARKS
BOZEMAN        CLOUDY    36  26  67 CALM      29.93R
DILLON         CLOUDY    32  21  64 SW13      29.95R WCI  22
W YELLOWSTONE  CLOUDY    27  23  86 VRB6      29.96R WCI  20
ENNIS          CLOUDY    36  19  51 SE9       29.99R WCI  29
THREE FORKS      N/A     38  22  52 CALM      29.93R
$$

MTZ009-010-012-014-046-048-049-054-211300-
EAST SLOPES AND CENTRAL MONTANA

CITY           SKY/WX    TMP DP  RH WIND       PRES   REMARKS
CUT BANK       CLEAR     32  24  72 W13       29.75R WCI  22
GREAT FALLS    CLEAR     36  24  62 SW14      29.79R WCI  27
MALMSTROM AFB  CLEAR     39  26  60 SW20G26   29.79R WCI  29
HELENA         MOCLDY    40  26  57 W8        29.91R
BOWMANS CRNR     N/A     36  23  59 S14G23    29.79R WCI  27
CHOTEAU          N/A     37  19  48 CALM      29.79R
FAIRFIELD      MOCLDY    39  23  52 W16       29.77R WCI  30
POWER            N/A     30  24  76 SW10      29.78R WCI  21
RAYNESFORD     MOCLDY    40  23  50 W17       29.79R
ULM              N/A     40  25  55 SW17      29.81R
$$

MTZ011-013-016-021-045-047-050-051-211300-
NORTH CENTRAL MONTANA

CITY           SKY/WX    TMP DP  RH WIND       PRES   REMARKS
HAVRE          CLOUDY    42  38  85 W14       29.71R
LEWISTOWN      PTCLDY    38  23  55 W15       29.77R WCI  29
N BAR RANCH      N/A     41  19  42 W26G33    29.72R
CHINOOK          N/A     43  39  87 W16       29.68R
DENTON         MOCLDY    41  24  49 W20       29.73R
GEYSER         CLOUDY    35  24  64 W13       29.78R WCI  27
GRASS RANGE    CLOUDY    41  23  48 W24G32    29.69R
JUDITH GAP     MOCLDY    37  20  50 W18G26    29.78R WCI  26
WINIFRED       MOCLDY    41  24  51 W17       29.74R
$$

MTZ017>020-022>027-061-062-211300-
NORTHEAST MONTANA

CITY           SKY/WX    TMP DP  RH WIND       PRES   REMARKS
GLASGOW        CLOUDY    43  39  86 W22G31    29.57R
JORDAN           N/A     45  31  58 W17       29.67R
SIDNEY         CLOUDY    47  37  68 W23G32    29.53R
WOLF POINT     CLOUDY    45  39  79 W23G33    29.57R
MALTA          CLOUDY    43  41  93 W24       29.64R FOG
PLENTYWOOD       N/A     45  37  76 W10       29.46R
POPLAR           N/A     46  37  71 W17G25    29.55R
$$

MTZ028>42-056>058-211300-
SOUTHCENTRAL AND SOUTHEAST MONTANA

CITY           SKY/WX    TMP DP  RH WIND       PRES   REMARKS
BAKER          CLOUDY    46  30  53 W26G38    29.64R
BILLINGS       CLEAR     43  21  41 W24G33    29.78R
LIVINGSTON     CLEAR     40  17  39 SW22G35   29.87R
MILES CITY     CLOUDY    45  31  58 W20       29.69R
BIG TIMBER     CLEAR     39  19  45 W15G30    29.86R WCI  31
FORSYTH          N/A     45  28  53 W15G26    29.72R
HARLOWTON        N/A     36  21  55 W23       29.80R WCI  24
LAUREL           N/A     45  18  33 W28G36    29.79R
$$

REGIONAL REPORTS...DAKOTAS

CITY           SKY/WX    TMP DP  RH WIND       PRES   REMARKS
WILLISTON      CLEAR     46  37  71 S17       29.48R
MINOT          PTCLDY    50  39  66 SW22G28   29.38R
DICKINSON      CLOUDY    46  34  62 W25G36    29.53R
BEACH          CLOUDY    45  32  61 W22G30    29.63R
CROSBY           N/A     45  37  76 W17G24    29.41S
TIOGA            N/A     43  39  87 W20       29.45R
WATFORD CITY     N/A     46  37  71 W18G26    29.50R
BISMARCK       MOCLDY    52  39  61 NW20G30   29.46F
GRAND FORKS    CLEAR     64  58  80 S20G32    29.34R
FARGO          PTCLDY    64  58  80 S16G31    29.40S
BUFFALO SD       N/A     46  28  49 W25       29.58R
RAPID CITY     CLOUDY    49  28  44 NW28      29.66R
$$

REGIONAL REPORTS...WYOMING/IDAHO/WASHINGTON

CITY           SKY/WX    TMP DP  RH WIND       PRES   REMARKS
GILLETTE       PTCLDY    41  19  41 NW14      29.78R
SHERIDAN       CLEAR     40  18  41 NW13      29.79R
BUFFALO WY     CLEAR     37  14  38 NW3       29.80R
CODY           CLEAR     39  15  37 W16G24    29.86R WCI  30
YELLOWSTONE LA   N/A     23  18  81 VRB6      29.97R WCI  16
IDAHO FALLS    CLOUDY    32  29  88 SW17      30.05R WCI  21
SALMON         CLOUDY    36  32  85 E5        30.03R
BOISE          MOCLDY    35  29  78 SE6       30.13R WCI  30
SPOKANE        PTCLDY    35  34  96 S9        29.96R WCI  28
$$

REGIONAL REPORTS...ALBERTA

CITY           SKY/WX    TMP DP  RH WIND       PRES   REMARKS
EDMONTON       CLEAR     27  27 100 W8        29.61R WCI  18
CALGARY        CLEAR     30  27  86 SW5       29.66R
LETHBRIDGE     CLEAR     39  27  60 W20G26    29.70R WCI  30
MEDICINE HAT   MOCLDY    39  36  87 W13       29.67R WCI  32
$$

REGIONAL REPORTS...SASKATCHEWAN

CITY           SKY/WX    TMP DP  RH WIND       PRES   REMARKS
SWIFT CURRENT  LGT RAIN  37  37 100 NW26G38   29.47R WCI  26
REGINA         MOCLDY    43  36  75 W14       29.36R
SASKATOON      MOCLDY    43  37  81 NW15      29.39R
$$




USA.gov is the U.S. government's official web portal to all federal, state and local government web resources and services.